Weather History for Litchfield, IL

Change the Weather History Date:

Saturday, June 1, 2013

  Actual Average (KSPI) Record (KSPI)
Temperature  
Mean Temperature 68 °F 69 °F  
Max Temperature 73 °F 79 °F 104 °F (1934)
Min Temperature 62 °F 58 °F 39 °F (2003)
Degree Days  
Heating Degree Days 0 1  
Month to date heating degree days 1  
Since 1 June heating degree days 1  
Since 1 July heating degree days 5471  
Cooling Degree Days 2 5  
Month to date cooling degree days 5  
Year to date cooling degree days 109  
Since 1 June cooling degree days 5  
Growing Degree Days 18 (Base 50)    
Moisture  
Dew Point 62 °F    
Average Humidity 88    
Maximum Humidity 98    
Minimum Humidity 65    
Precipitation  
Precipitation 0.36 in 0.16 in 3.87 in (1965)
Month to date precipitation 0.16  
Year to date precipitation 14.17  
Snow  
Snow 0.00 in 0.00 in 0.00 in ()
Month to date snowfall 0.0  
Since 1 June snowfall 0.0  
Since 1 July snowfall 20.9  
Snow Depth -    
Sea Level Pressure  
Sea Level Pressure 29.81 in    
Wind  
Wind Speed 12 mph (SSE)    
Max Wind Speed 24 mph    
Max Gust Speed 33 mph    
Visibility 10 miles    
Events Rain , Thunderstorm    
T = Trace of Precipitation, MM = Missing Value Source: NWS Daily Summary

Daily Weather History Graph

Daily Weather History Graph

Search for Another Location

Airport:

Trip Planner

Search our weather history database for the weather conditions in past years. The results will help you decide how hot, cold, wet, or windy it might be!

Date:

Astronomy

Jun. 01, 2013 Rise Set
Actual Time 5:34 AM CDT 8:19 PM CDT
Civil Twilight 5:02 AM CDT 8:50 PM CDT
Nautical Twilight 4:23 AM CDT 9:30 PM CDT
Astronomical Twilight 3:38 AM CDT 10:15 PM CDT
Moon 1:27 AM CDT (6/1) 1:51 PM CDT (6/1)
Length of Visible Light 15h 48m
Length of Day
14h 44m
Last Quarter, 40% of the Moon is Illuminated
Jun 1
Last Quarter
Jun 8
New
Jun 16
First Quarter
Jun 23
Full
Jun 29
Last Quarter

Hourly Weather History & Observations

Time (CDT) Temp. Dew Point Humidity Pressure Visibility Wind Dir Wind Speed Gust Speed Precip Events Conditions
12:15 AM 64.8 °F 64.0 °F 98% 29.89 in 10.0 mi South 6.9 mph - 0.01 in Rain , Thunderstorm Light Thunderstorms and Rain
12:35 AM 64.9 °F 63.9 °F 96% 29.87 in 10.0 mi WSW 3.5 mph - 0.04 in Rain , Thunderstorm Heavy Thunderstorms and Rain
12:55 AM 64.9 °F 63.7 °F 96% 29.87 in 7.0 mi SE 6.9 mph - 0.09 in Rain , Thunderstorm Rain
1:15 AM 64.9 °F 63.7 °F 96% 29.87 in 10.0 mi SE 5.8 mph - 0.03 in Rain , Thunderstorm Thunderstorms and Rain
1:35 AM 64.8 °F 63.1 °F 94% 29.87 in 7.0 mi SSE 9.2 mph - 0.07 in Rain , Thunderstorm Thunderstorms and Rain
1:55 AM 64.4 °F 63.0 °F 95% 29.84 in 10.0 mi South 12.7 mph - 0.12 in Rain , Thunderstorm Thunderstorms and Rain
2:15 AM 63.7 °F 62.4 °F 96% 29.76 in 7.0 mi SE 13.8 mph - 0.03 in Rain , Thunderstorm Thunderstorms and Rain
2:35 AM 63.3 °F 61.9 °F 95% 29.75 in 10.0 mi SSE 11.5 mph - 0.06 in Rain Light Rain
2:55 AM 63.5 °F 61.9 °F 94% 29.76 in 10.0 mi SSE 10.4 mph - 0.06 in   Scattered Clouds
3:15 AM 63.1 °F 61.9 °F 96% 29.75 in 10.0 mi SE 8.1 mph - N/A   Clear
3:35 AM 62.8 °F 61.7 °F 96% 29.75 in 10.0 mi SSE 8.1 mph - N/A   Clear
3:55 AM 62.8 °F 61.7 °F 96% 29.77 in 10.0 mi SSE 6.9 mph - N/A   Clear
4:15 AM 62.8 °F 61.7 °F 96% 29.78 in 10.0 mi South 10.4 mph - N/A   Clear
4:35 AM 63.0 °F 62.1 °F 97% 29.81 in 10.0 mi SSE 11.5 mph - N/A   Scattered Clouds
4:55 AM 63.1 °F 62.2 °F 97% 29.78 in 10.0 mi South 12.7 mph - N/A   Mostly Cloudy
5:15 AM 63.0 °F 62.2 °F 97% 29.75 in 10.0 mi SSE 10.4 mph - N/A   Scattered Clouds
5:35 AM 63.0 °F 62.4 °F 98% 29.78 in 10.0 mi South 13.8 mph 18.4 mph N/A   Mostly Cloudy
5:55 AM 63.7 °F 62.2 °F 95% 29.80 in 10.0 mi South 13.8 mph 19.6 mph N/A   Overcast
6:15 AM 63.5 °F 62.2 °F 96% 29.80 in 10.0 mi South 12.7 mph - N/A   Overcast
6:35 AM 63.9 °F 62.6 °F 96% 29.81 in 10.0 mi South 15.0 mph 20.7 mph N/A   Overcast
6:55 AM 63.9 °F 62.6 °F 96% 29.82 in 10.0 mi South 15.0 mph - N/A   Overcast
7:15 AM 63.9 °F 62.6 °F 96% 29.83 in 10.0 mi SSE 16.1 mph - N/A   Mostly Cloudy
7:35 AM 63.9 °F 62.6 °F 96% 29.85 in 10.0 mi South 18.4 mph 21.9 mph N/A   Mostly Cloudy
7:55 AM 64.0 °F 62.6 °F 95% 29.86 in 10.0 mi South 19.6 mph 25.3 mph N/A   Light Drizzle
8:15 AM 64.0 °F 62.8 °F 96% 29.85 in 10.0 mi South 17.3 mph 24.2 mph N/A Rain Light Rain
8:35 AM 63.9 °F 62.8 °F 96% 29.83 in 10.0 mi South 24.2 mph 29.9 mph 0.01 in Rain Light Rain
8:55 AM 63.9 °F 62.8 °F 96% 29.81 in 10.0 mi South 23.0 mph 32.2 mph 0.01 in Rain Light Rain
9:15 AM 64.4 °F 63.0 °F 95% 29.83 in 10.0 mi South 24.2 mph 31.1 mph N/A   Overcast
9:35 AM 64.6 °F 63.1 °F 95% 29.80 in 10.0 mi South 17.3 mph 26.5 mph N/A   Light Drizzle
9:55 AM 65.1 °F 63.5 °F 94% 29.78 in 10.0 mi SSE 15.0 mph 19.6 mph N/A   Scattered Clouds
10:15 AM 66.2 °F 63.7 °F 92% 29.78 in 10.0 mi SSE 17.3 mph 20.7 mph N/A   Mostly Cloudy
10:35 AM 65.8 °F 63.7 °F 93% 29.80 in 10.0 mi South 17.3 mph 24.2 mph N/A   Overcast
10:55 AM 65.8 °F 63.5 °F 92% 29.81 in 10.0 mi South 18.4 mph - N/A   Overcast
11:15 AM 66.2 °F 63.3 °F 90% 29.78 in 10.0 mi SSE 16.1 mph 26.5 mph N/A   Overcast
11:35 AM 66.7 °F 63.9 °F 90% 29.79 in 10.0 mi South 17.3 mph 24.2 mph N/A   Overcast
11:55 AM 66.6 °F 63.5 °F 90% 29.81 in 10.0 mi South 21.9 mph 28.8 mph N/A   Overcast
12:15 PM 66.6 °F 63.7 °F 90% 29.81 in 10.0 mi South 19.6 mph 25.3 mph N/A   Overcast
12:35 PM 67.1 °F 64.0 °F 90% 29.81 in 10.0 mi South 20.7 mph 24.2 mph N/A   Overcast
12:55 PM 67.5 °F 64.4 °F 90% 29.80 in 10.0 mi SSE 18.4 mph - N/A   Overcast
1:15 PM 68.7 °F 64.9 °F 88% 29.80 in 10.0 mi SSE 20.7 mph - N/A   Overcast
1:35 PM 69.1 °F 64.6 °F 86% 29.79 in 10.0 mi SSE 20.7 mph 27.6 mph N/A   Mostly Cloudy
1:55 PM 70.3 °F 65.7 °F 85% 29.79 in 10.0 mi South 21.9 mph - N/A   Mostly Cloudy
2:15 PM 70.5 °F 65.3 °F 83% 29.79 in 10.0 mi South 20.7 mph 25.3 mph N/A   Scattered Clouds
3:15 PM 70.5 °F 65.3 °F 83% 29.78 in 10.0 mi South 16.1 mph 24.2 mph N/A   Overcast
3:35 PM - - N/A% 29.78 in 10.0 mi South 15.0 mph 23.0 mph N/A   Overcast
3:55 PM 70.9 °F 66.0 °F 85% 29.78 in 10.0 mi South 16.1 mph - N/A   Mostly Cloudy
4:15 PM 70.9 °F 66.0 °F 85% 29.78 in 10.0 mi SSE 15.0 mph - N/A   Mostly Cloudy
4:35 PM 70.9 °F 66.2 °F 85% 29.77 in 10.0 mi SSE 13.8 mph - N/A   Overcast
4:55 PM 72.1 °F 59.7 °F 65% - - SSE 13.8 mph 19.6 mph N/A   Unknown
5:15 PM 72.7 °F 65.8 °F 79% 29.77 in 10.0 mi SE 13.8 mph - N/A   Scattered Clouds
5:35 PM 73.4 °F 66.4 °F 79% 29.75 in 10.0 mi South 11.5 mph - N/A   Scattered Clouds
5:55 PM 72.5 °F 66.0 °F 80% 29.75 in 10.0 mi SSW 12.7 mph 18.4 mph N/A   Clear
6:15 PM 68.2 °F 64.4 °F 88% 29.76 in 4.0 mi SE 19.6 mph 33.4 mph 0.05 in Rain , Thunderstorm Heavy Thunderstorms and Rain
6:35 PM 65.1 °F 61.9 °F 89% 29.75 in 10.0 mi East 10.4 mph - 0.08 in   Mostly Cloudy
6:55 PM 67.8 °F 63.5 °F 86% 29.75 in 10.0 mi East 15.0 mph - 0.08 in Thunderstorm Thunderstorm
7:15 PM 70.2 °F 61.2 °F 73% 29.77 in 10.0 mi East 16.1 mph - N/A   Clear
7:35 PM 69.6 °F 58.8 °F 68% 29.79 in 10.0 mi East 15.0 mph 19.6 mph N/A Thunderstorm Clear
7:55 PM 68.9 °F 58.1 °F 68% 29.81 in 10.0 mi West 11.5 mph - N/A   Clear
8:15 PM 67.3 °F 58.8 °F 74% 29.82 in 10.0 mi East 8.1 mph - N/A   Clear
8:35 PM 67.1 °F 57.7 °F 72% 29.83 in 10.0 mi East 9.2 mph - N/A   Clear
8:55 PM 66.4 °F 57.2 °F 72% 29.83 in 10.0 mi East 10.4 mph - N/A   Clear
9:15 PM 65.7 °F 57.2 °F 74% 29.85 in 10.0 mi East 8.1 mph - N/A   Clear
9:35 PM 63.9 °F 58.1 °F 81% 29.85 in 10.0 mi East 3.5 mph - N/A   Clear
9:55 PM 64.2 °F 57.6 °F 79% 29.86 in 10.0 mi ESE 5.8 mph - N/A   Clear
10:15 PM 62.6 °F 58.6 °F 87% 29.87 in 10.0 mi ESE 4.6 mph - N/A   Clear
10:35 PM 63.3 °F 57.2 °F 80% 29.87 in 10.0 mi East 5.8 mph - N/A   Clear
10:55 PM 62.2 °F 57.2 °F 84% 29.87 in 10.0 mi ESE 6.9 mph - N/A   Clear
11:15 PM 62.2 °F 57.2 °F 84% 29.88 in 10.0 mi East 9.2 mph - N/A   Mostly Cloudy
11:35 PM 63.5 °F 57.2 °F 80% 29.88 in 10.0 mi East 9.2 mph - N/A   Overcast
11:55 PM 63.5 °F 57.4 °F 80% 29.88 in 10.0 mi East 10.4 mph - N/A   Mostly Cloudy